星链-37391(STARLINK-37391)

导读 | 豆包AI

STARLINK-37391(NORAD编号68779)是SpaceX星链(Starlink)星座中的一颗低轨互联网通信卫星,隶属于星链第二代组网任务。星链项目旨在构建覆盖全球的天基宽带互联网,为偏远地区、网络覆盖不足区域提供高速互联网接入服务。 该卫星运行在近地轨道,轨道周期约90余分钟,通过猎鹰9号火箭执行发射任务,属于SpaceX批量组网的卫星之一。截至2025年,星链星座活跃卫星已超7600颗,STARLINK-37399是SpaceX持续扩大星座覆盖、提升服务容量的重要组成部分,支持包括手机直连在内的新一代星链通信服务能力。

基本信息
目录编号:
68779
目录名称:
STARLINK-37391
国际标识:
2026-086P
轨道中心:
EARTH
卫星名称:
星链-37391
卫星全名:
星链-37391(STARLINK-37391)
卫星状态:
在轨 (已飞行36 天)
发射日期:
2026-04-19 UTC
国别 :
美国 (US)
星等 :
--
轨道信息
数据来源 国际轨道数据
星历时间: 2026-05-23T23:14:45+0800
1天前
查看轨道信息
半长轴: 6721.871km
偏心率: 0.0001205
轨道倾角: 97.284°
近地点辐角 12.026°
升交点赤经 180.437°
平近点角 348.103°
近地点: 342.924km
远地点: 344.544km
周期: 91.410分钟
每日圈数: 15.753156
详细信息
固有亮度:
5
最大亮度:
2.5
卫星平台:
Starlink V1.0
覆盖范围:
全球
运营商:
太空探索技术公司
运营商所在国:
美国
制造商(研发单位):
太空探索技术公司
制造商所在国:
美国
使用方式:
暂无
卫星简介
Starlink 计划是 SpaceX 推出的全球卫星互联网项目,通过发射低轨道卫星,为全球尤其是偏远地区提供高速、低延迟的互联网服务。自 2019 年起,Starlink 已部署数千颗卫星,旨在缩小全球数字鸿沟,推动互联网普及。该项目还为军事、航空等行业提供通信支持,带来广泛经济效益。
2D轨道图
3D轨道图
轨道高度分析图
轨道倾角分析图
轨道综合分析图
查看轨道综合分析图